Wind_Speed
43 40 40 38 34 32 30 25 30 47 64 87 97 94 93 94 94 94 92 96 95 104 103 92 87 103 99 94 82 87 89 86 89 86 90 91 85 81 72 69 76 79 67 71 71
38 38 39 36 33 28 25 23 22 35 53 72 92 94 91 91 92 90 93 93 94 106 103 103 98 83 96 93 101 94 86 80 89 90 93 98 90 90 83 79 79 81 71 68 73
35 36 34 33 30 29 23 19 17 23 43 61 83 91 89 89 88 91 91 91 96 105 110 110 106 103 96 91 90 97 94 89 87 89 94 98 96 93 90 87 84 73 75 73 81
34 34 31 31 30 28 26 21 17 16 29 48 73 86 88 87 84 89 89 92 94 99 107 109 113 108 114 105 101 106 98 105 104 104 102 98 96 95 95 92 93 87 86 77 78
32 31 29 28 29 28 29 27 23 19 19 33 57 79 85 86 84 88 89 91 94 96 101 109 119 115 112 110 109 96 106 101 105 112 104 99 97 97 96 83 89 86 89 84 80
32 33 31 29 27 29 28 30 31 27 25 27 40 65 81 83 85 86 87 89 91 94 98 102 110 116 112 117 118 115 98 109 105 109 108 106 103 101 94 89 88 92 90 88 83
31 31 30 32 29 25 26 30 31 36 34 31 35 44 67 83 84 84 87 89 91 92 95 99 102 105 108 113 119 123 118 106 103 104 106 105 108 107 95 98 90 88 92 94 95
32 32 29 29 26 24 21 24 26 32 37 40 37 39 48 69 85 87 87 87 89 92 93 96 99 103 107 108 112 122 125 114 108 105 102 109 98 100 99 102 100 103 101 95 97
32 28 28 29 24 22 20 22 22 24 29 36 42 44 37 46 60 80 89 88 90 93 94 96 99 101 105 108 111 114 115 123 121 124 119 125 107 94 95 95 98 97 97 99 98
25 24 26 23 22 20 20 21 21 23 24 28 33 38 45 47 49 51 64 80 91 94 95 98 101 102 106 109 106 112 116 116 111 115 128 135 127 108 105 101 103 107 106 103 105
26 24 25 23 21 19 20 22 21 23 26 28 31 31 33 38 46 54 56 58 63 75 88 97 104 106 109 111 110 112 115 113 112 113 125 127 124 118 121 126 113 104 98 99 104
28 26 26 25 21 21 21 22 25 26 23 27 30 35 38 40 42 44 51 59 63 66 71 77 88 100 108 112 113 115 117 114 113 116 123 127 124 116 113 117 121 117 109 104 97
27 27 24 23 24 23 23 24 25 26 29 30 31 34 37 41 44 49 52 56 59 64 71 77 82 87 93 101 110 117 119 117 119 121 126 120 122 118 110 114 117 122 122 116 110
32 27 26 25 24 24 24 22 22 24 26 32 35 39 40 44 45 50 53 57 61 65 70 75 82 87 91 95 101 107 114 121 123 125 124 124 122 119 111 110 113 114 114 114 116
35 34 30 28 27 27 25 26 26 27 25 29 31 35 36 39 43 48 49 54 57 61 67 72 80 86 92 98 103 108 109 117 122 127 125 124 124 113 111 109 110 110 110 110 111
35 34 32 32 32 32 30 30 30 31 35 34 36 40 42 46 49 53 56 58 59 63 71 74 80 88 90 96 101 104 105 111 116 118 123 113 124 110 110 106 110 108 109 111 110
31 32 31 31 32 35 37 39 40 39 38 37 39 40 42 45 51 56 59 62 62 67 75 78 80 86 86 91 92 95 98 102 104 109 104 101 118 98 108 108 110 111 111 111 108
28 29 29 30 34 34 36 39 43 44 46 46 46 47 48 49 53 55 58 60 64 67 74 76 75 72 75 81 80 85 85 87 92 97 92 91 104 86 93 102 109 112 114 114 110
27 27 27 29 31 34 37 41 43 46 48 50 51 52 54 55 52 54 56 56 63 69 69 64 59 59 59 63 67 75 76 79 78 83 85 90 91 80 80 91 100 104 112 113 108
31 27 29 31 31 35 39 42 44 47 50 53 53 53 54 55 53 51 51 54 58 61 56 50 44 45 46 47 53 59 61 62 65 68 73 77 76 70 71 82 93 102 104 102 98
47 38 32 31 33 36 39 43 44 47 50 54 53 52 50 50 47 46 46 53 55 50 46 39 39 37 40 41 44 44 47 50 54 57 57 59 61 66 66 75 83 91 97 93 84
60 53 47 40 35 35 39 43 46 48 51 53 53 49 48 46 42 41 45 49 47 41 34 29 30 30 34 34 36 39 41 43 47 46 46 43 45 56 57 64 69 80 90 89 81
66 64 58 53 49 44 37 36 38 41 42 44 46 45 43 40 37 38 45 47 39 35 30 24 24 26 28 28 31 35 35 38 37 36 37 37 40 47 48 68 79 83 76 73 76
71 71 68 63 60 59 54 46 41 38 38 37 39 39 37 32 30 38 44 44 36 29 25 23 20 20 22 21 21 22 26 28 26 29 33 36 40 46 49 59 68 74 80 69 77
72 72 76 75 68 65 62 57 52 44 35 33 35 34 32 30 29 38 43 41 32 28 24 20 15 16 16 13 15 17 25 23 24 25 30 37 44 52 48 52 63 76 85 68 76
74 74 76 78 79 70 66 63 59 50 40 35 35 32 29 27 32 40 44 38 28 22 17 15 15 12 10 10 12 15 19 20 26 33 34 46 54 56 54 58 72 71 56 66 74
74 74 75 78 80 77 71 67 62 58 44 38 36 31 25 26 32 39 43 34 26 22 16 10 8 7 6 3 9 9 16 23 29 34 37 46 54 59 64 64 64 57 64 68 66
Wind_Direction
303 302 305 305 303 311 321 296 250 227 223 219 222 224 225 226 227 227 227 223 221 219 219 221 225 231 231 231 232 236 240 240 240 243 242 244 245 243 247 246 246 253 256 259 259
298 303 303 302 299 302 315 319 279 237 224 218 220 224 225 225 227 227 227 226 223 221 222 222 224 222 228 230 233 234 234 232 237 237 240 244 245 245 242 244 246 252 255 257 258
299 304 300 294 292 292 296 305 303 263 233 225 219 223 225 227 228 227 227 228 226 220 222 224 226 225 228 229 235 235 234 230 234 241 238 240 245 246 248 248 250 250 254 251 256
303 304 302 293 287 281 282 284 283 278 246 233 225 222 225 227 228 229 229 228 228 227 226 228 226 229 232 234 239 238 236 237 238 240 243 242 244 250 249 249 252 250 249 246 248
312 308 305 296 285 280 272 270 271 264 252 239 230 228 226 227 228 230 231 230 230 230 229 227 230 231 231 235 233 239 240 237 240 244 243 245 247 247 249 249 251 248 246 242 247
315 312 309 307 298 283 271 267 263 258 253 244 235 231 230 229 230 231 233 233 233 233 232 233 233 232 236 234 237 235 233 240 240 243 242 244 245 245 248 247 246 245 247 250 243
314 310 305 303 300 294 289 269 261 259 256 248 244 235 233 231 232 233 234 235 235 235 235 236 235 235 236 236 235 239 240 235 240 243 246 247 246 246 247 249 246 246 247 247 246
302 302 297 304 298 287 282 281 276 260 255 256 253 246 239 235 234 235 235 236 237 238 239 239 238 238 238 238 238 237 239 236 239 236 234 237 237 239 243 245 247 248 249 248 244
307 305 304 299 297 287 280 285 277 266 264 261 256 251 246 246 241 239 239 240 241 241 241 242 241 241 241 239 239 239 238 238 238 241 239 241 236 235 236 239 242 244 245 248 249
310 310 315 305 298 293 283 282 285 273 266 262 262 258 252 249 248 246 244 243 243 243 244 245 245 244 244 242 241 241 241 240 238 239 241 244 239 233 236 238 243 246 245 247 248
306 302 309 321 316 302 291 281 283 279 268 265 268 263 258 254 250 250 249 249 247 246 246 246 247 246 245 246 245 244 244 241 240 239 243 242 242 238 238 244 242 242 244 246 247
312 304 301 304 311 313 298 284 278 281 280 270 266 264 260 258 259 256 252 251 250 250 251 250 250 249 248 248 246 246 246 244 242 240 242 243 243 239 237 240 243 243 241 241 244
308 304 302 300 299 301 306 289 280 277 278 276 272 269 266 265 263 261 260 259 258 256 254 253 254 253 252 251 250 249 247 245 245 243 244 243 244 244 239 240 240 242 244 243 247
296 297 295 299 300 299 299 298 285 281 275 274 272 272 270 270 267 266 266 264 260 259 258 259 258 257 256 255 253 249 250 249 246 245 245 245 243 243 241 240 241 242 244 246 246
286 289 291 292 296 298 298 293 287 284 280 275 277 277 273 271 272 270 266 266 266 267 266 262 260 259 257 255 253 251 250 249 248 249 246 245 247 243 243 241 242 243 245 245 245
275 280 285 290 292 295 297 296 292 287 284 281 277 276 275 275 275 276 275 272 270 269 267 263 263 261 260 258 255 255 254 253 252 250 248 248 248 244 244 242 242 242 242 244 244
275 274 276 282 287 289 294 296 296 296 291 288 286 282 281 282 279 278 276 275 272 272 272 268 265 264 264 261 261 258 256 254 254 254 253 248 249 243 243 241 241 239 240 240 240
283 281 281 282 285 290 289 291 293 295 295 294 294 291 288 286 289 290 287 281 279 277 276 275 273 268 264 262 258 258 256 254 252 252 252 248 248 242 237 238 239 238 237 239 239
299 289 286 285 290 290 288 290 293 293 293 294 294 294 295 295 293 292 289 286 285 285 283 280 275 268 262 260 257 255 254 253 252 251 249 248 249 244 236 237 236 238 237 235 238
346 312 295 290 291 292 290 291 292 293 295 294 296 298 298 298 299 299 295 292 291 293 292 288 279 270 267 261 257 253 255 252 251 248 246 245 246 244 236 232 232 234 237 236 235
15 4 341 317 301 291 292 293 293 292 292 295 300 302 302 303 304 302 302 305 307 303 298 291 283 279 267 260 257 254 249 247 246 244 243 239 239 239 234 229 229 233 235 234 229
19 18 15 5 345 323 306 297 292 291 291 295 297 301 304 308 308 307 312 316 313 306 300 291 282 275 267 266 257 251 249 244 243 240 237 233 232 231 226 224 232 235 231 227 224
18 14 14 13 10 1 345 328 316 307 301 300 299 302 306 310 313 315 321 322 317 311 303 296 288 279 272 265 257 253 251 246 241 238 233 223 221 225 217 220 218 224 232 224 219
13 13 10 9 8 6 1 353 341 327 320 316 308 306 308 313 316 323 327 332 324 320 317 305 288 275 273 266 258 249 243 237 237 233 220 212 209 215 213 221 225 220 223 213 216
9 9 8 7 5 3 1 357 352 346 332 329 325 316 314 317 325 330 334 335 327 328 324 317 302 289 279 264 254 235 233 217 206 213 207 211 205 203 201 215 217 222 218 203 210
6 6 5 3 4 1 0 356 355 353 346 340 333 326 319 325 333 337 340 337 334 333 333 332 323 311 305 290 249 232 218 219 203 197 194 199 191 195 208 216 214 214 208 212 206
2 3 3 2 1 0 358 357 354 353 353 344 340 333 327 331 340 340 341 339 334 337 335 346 0 346 329 304 263 237 224 214 203 199 198 203 206 208 214 221 219 200 198 206 205
Height
10646 10640 10634 10628 10623 10617 10611 10606 10606 10611 10619 10633 10646 10660 10673 10685 10696 10709 10726 10735 10749 10754 10762 10772 10777 10785 10795 10802 10802 10804 10822 10833 10838 10840 10841 10832 10849 10855 10864 10873 10871 10870 10879 10884 10890
10638 10633 10627 10622 10618 10615 10611 10606 10605 10607 10613 10622 10635 10648 10660 10671 10683 10698 10704 10720 10730 10738 10747 10759 10765 10769 10777 10782 10787 10794 10807 10817 10813 10819 10823 10818 10835 10841 10848 10857 10863 10863 10871 10875 10873
10631 10626 10621 10617 10613 10611 10609 10607 10605 10606 10611 10618 10625 10636 10648 10659 10673 10679 10693 10704 10713 10721 10729 10740 10746 10754 10763 10767 10771 10779 10801 10793 10797 10801 10807 10806 10819 10826 10832 10842 10849 10852 10855 10866 10859
10624 10619 10615 10611 10608 10606 10605 10604 10604 10604 10607 10612 10619 10626 10637 10648 10664 10665 10677 10687 10696 10705 10714 10723 10729 10738 10747 10753 10752 10761 10780 10779 10781 10784 10786 10797 10806 10813 10816 10830 10832 10841 10842 10854 10848
10616 10612 10608 10605 10602 10601 10600 10599 10600 10601 10602 10605 10610 10619 10626 10636 10648 10652 10661 10671 10679 10688 10697 10706 10710 10717 10728 10734 10737 10753 10756 10763 10764 10763 10777 10784 10796 10796 10804 10812 10815 10824 10828 10835 10838
10609 10605 10601 10599 10596 10594 10594 10594 10595 10595 10597 10599 10601 10607 10616 10627 10628 10638 10647 10655 10664 10672 10681 10686 10695 10703 10712 10714 10719 10720 10735 10745 10749 10752 10765 10768 10776 10766 10799 10795 10801 10809 10814 10814 10830
10604 10600 10596 10593 10590 10588 10588 10588 10588 10589 10590 10593 10595 10598 10605 10614 10619 10625 10633 10640 10648 10655 10661 10668 10677 10681 10687 10693 10696 10698 10715 10727 10740 10747 10747 10741 10746 10769 10777 10775 10785 10789 10793 10799 10806
10599 10595 10591 10588 10585 10582 10581 10581 10582 10583 10584 10586 10589 10593 10598 10598 10607 10613 10619 10626 10633 10639 10645 10652 10657 10661 10667 10673 10676 10684 10691 10709 10726 10718 10729 10698 10732 10758 10751 10757 10766 10769 10777 10783 10788
10591 10587 10584 10581 10578 10576 10574 10574 10574 10576 10577 10579 10581 10585 10592 10591 10596 10603 10608 10613 10618 10622 10626 10630 10635 10640 10643 10650 10656 10663 10675 10682 10701 10698 10698 10669 10720 10742 10733 10736 10742 10751 10760 10766 10774
10585 10581 10578 10574 10572 10570 10569 10568 10568 10568 10570 10571 10572 10576 10580 10585 10585 10589 10593 10597 10602 10605 10607 10612 10615 10618 10621 10624 10642 10638 10642 10659 10681 10681 10659 10654 10683 10725 10718 10715 10724 10735 10743 10752 10761
10579 10576 10573 10570 10567 10565 10564 10563 10562 10562 10563 10564 10566 10569 10570 10572 10574 10578 10580 10582 10586 10587 10589 10592 10594 10595 10597 10602 10615 10616 10619 10639 10656 10656 10625 10629 10659 10701 10705 10689 10708 10720 10727 10737 10743
10574 10571 10568 10565 10563 10560 10559 10558 10557 10556 10557 10557 10558 10558 10561 10562 10563 10565 10566 10568 10570 10572 10571 10571 10571 10571 10574 10578 10587 10590 10593 10611 10622 10623 10597 10611 10632 10668 10680 10684 10691 10696 10708 10718 10727
10567 10565 10562 10560 10557 10555 10553 10551 10551 10550 10550 10550 10551 10550 10550 10550 10552 10552 10554 10554 10555 10555 10554 10552 10549 10548 10549 10553 10558 10564 10564 10579 10585 10582 10572 10601 10612 10635 10663 10661 10670 10674 10687 10702 10712
10559 10558 10556 10554 10552 10549 10547 10545 10544 10544 10545 10541 10542 10540 10541 10540 10540 10538 10539 10537 10538 10537 10536 10533 10526 10525 10525 10528 10526 10532 10534 10540 10548 10550 10560 10569 10586 10603 10636 10646 10649 10661 10671 10681 10692
10550 10549 10548 10547 10546 10544 10542 10540 10538 10536 10537 10535 10534 10530 10530 10529 10527 10524 10525 10521 10518 10515 10512 10509 10502 10501 10499 10498 10494 10496 10504 10503 10512 10516 10533 10544 10553 10600 10613 10628 10636 10647 10653 10661 10667
10539 10539 10539 10539 10537 10536 10535 10533 10531 10529 10526 10526 10524 10521 10520 10517 10513 10509 10505 10502 10499 10495 10485 10485 10478 10469 10473 10465 10465 10470 10479 10476 10476 10484 10486 10541 10522 10574 10585 10605 10610 10621 10626 10634 10645
10529 10530 10530 10530 10529 10527 10526 10524 10522 10519 10518 10515 10511 10509 10507 10502 10496 10492 10487 10481 10478 10471 10459 10455 10454 10442 10444 10436 10439 10438 10445 10447 10452 10452 10477 10505 10477 10544 10554 10573 10580 10585 10596 10606 10621
10524 10523 10525 10524 10522 10520 10518 10515 10511 10509 10505 10503 10499 10494 10491 10487 10480 10473 10467 10460 10453 10447 10436 10428 10423 10420 10413 10405 10412 10410 10413 10420 10424 10429 10448 10461 10451 10513 10532 10537 10541 10556 10570 10578 10599
10521 10520 10519 10517 10516 10513 10510 10506 10502 10497 10493 10489 10485 10480 10474 10468 10463 10456 10447 10441 10429 10418 10409 10402 10398 10389 10389 10385 10386 10382 10389 10393 10402 10409 10420 10428 10441 10474 10498 10516 10524 10534 10536 10556 10580
10521 10518 10514 10512 10509 10506 10501 10497 10492 10486 10481 10475 10471 10467 10460 10452 10446 10439 10428 10419 10411 10397 10385 10377 10376 10372 10370 10369 10365 10366 10370 10378 10382 10390 10397 10413 10428 10456 10474 10485 10495 10503 10519 10542 10574
10523 10517 10512 10507 10503 10498 10492 10487 10482 10476 10470 10463 10458 10453 10447 10439 10431 10422 10414 10402 10389 10378 10367 10362 10356 10356 10352 10351 10350 10355 10356 10360 10365 10372 10383 10396 10416 10429 10451 10461 10474 10485 10504 10527 10559
10528 10519 10511 10504 10497 10490 10484 10478 10471 10464 10458 10452 10444 10439 10433 10426 10418 10410 10401 10389 10376 10364 10355 10348 10344 10341 10339 10342 10342 10341 10346 10349 10351 10363 10375 10391 10400 10408 10436 10454 10471 10479 10482 10509 10539
10529 10521 10512 10503 10495 10486 10477 10469 10461 10452 10446 10439 10432 10426 10421 10416 10408 10400 10390 10377 10364 10353 10344 10339 10335 10331 10330 10331 10332 10334 10339 10339 10348 10357 10370 10385 10394 10402 10418 10417 10424 10434 10477 10503 10525
10529 10521 10511 10500 10490 10480 10470 10461 10452 10444 10435 10429 10422 10415 10410 10404 10400 10391 10380 10367 10355 10346 10339 10333 10329 10325 10323 10324 10325 10328 10329 10333 10344 10354 10363 10372 10385 10394 10403 10413 10427 10446 10446 10481 10503
10530 10520 10509 10499 10489 10477 10467 10456 10445 10436 10428 10420 10412 10406 10400 10394 10390 10381 10371 10359 10350 10341 10334 10328 10324 10320 10318 10318 10319 10322 10320 10327 10333 10345 10360 10362 10373 10387 10386 10394 10409 10425 10431 10467 10487
10530 10519 10510 10498 10486 10475 10464 10452 10440 10431 10421 10414 10406 10398 10392 10387 10380 10372 10363 10353 10344 10339 10332 10326 10322 10317 10314 10315 10315 10316 10317 10325 10328 10335 10351 10359 10366 10369 10374 10379 10392 10413 10452 10470 10477
10531 10519 10508 10499 10486 10476 10463 10450 10438 10426 10420 10409 10401 10394 10388 10383 10375 10366 10357 10349 10342 10336 10331 10326 10322 10318 10315 10314 10312 10314 10317 10319 10322 10330 10342 10345 10355 10371 10375 10377 10391 10422 10436 10454 10481